STARLINK-11650, 63312

Orbit data source: Space-Track

STARLINK-11650, 63312 is a payload satellite owned by SpaceX/Seattle (US) in LEO that was launched on Tue, 18 Mar 2025 UTC via an FALCON 9 launch vehicle from the Air Force Eastern Test Range (AFETR). Payload-class satellites include a variety of spacecraft equipped with specific instruments for various scientific and technological missions. These include communications satellites like Starlink; space stations such as the ISS; scientific satellites like the Hubble; Earth observation satellites from companies like Planet Labs, Umbra, and HawkEye 360; GPS; miniature CubeSats for education and research; and military/defense satellites.

Loading next visibility...
Identifier
63312, 2025-057F
Orbit
LEO
Country
Flag of USUS
Related business
Manufacturer
SpaceX/Seattle
Mission
Operational Commercial Communications
Bus & Motor
STARLINK V2MD, Unknown motor
Mass
960 kg wet, ~910 kg dry
Launch date (UTC)
2025-03-18 (11 months ago)
Launch vehicle
FALCON 9
Launch site
Air Force Eastern Test Range (AFETR)
Object type
Payload
Rocket body
Debris
Shape & HBR
Box + 2 Pan, 18.1 m
Radar Cross Section
36.964 m², Large (>1 m²)

Expand to show TLE details & history
Last TLE update: 11 hours ago

TLE from 11 hours ago
0 STARLINK-11650
1 63312U 25057F   26034.53509417  .00313224  00000-0  23493-2 0  9991
2 63312  43.0002 110.6135 0001466 279.9061  80.1641 15.70884851 51838
Epoch: 2026-02-03T12:50Z
TLE epoch observation values (Epoch: 2026-02-03T12:50:32.136Z)
Latitude
-0.00002°
Longitude
144.26494°
Altitude
355.97 km
Speed
7.698 km/s
True Right ascension
07h 22m 27s
True Declination
0° 00' 00"
Sunlit
Object was in full shadow at epoch
Visualization orbit readout
Latitude
Unknown
Longitude
Unknown
Altitude
Unknown
Speed
Unknown
Apparent Right ascension
Unknown
Apparent Declination
Unknown
Sunlit
N/A
Visualization observer readout
Local Sidereal Time
01:46:18
Azimuth
Unknown
Elevation
Unknown
Doppler factor
Unknown
Orbital elements
Apogee altitude
359.336 km
Perigee altitude
357.361 km
Semi-major axis
6,736.485 km
Eccentricity
0.00015
Inclination
43.0002°
RAAN
110.6135°
Arg. of periapsis
279.9061°
True anomaly
80.18065°
Mean anomaly
80.1641°
Eccentric anomaly
80.17238°
Mean motion
3.92548 °/min
Orbital period
91.71 mins
BSTAR
0.0023493
Loading maneuver chart data...
Computing Atmospheric mass density...
Loading historical data...
Loading historical data...
Loading historical data...
Loading historical data...
Loading historical data...
Loading historical data...
Loading historical data...

Documentation

Showing up to 5 results
|